User: anonymous   Login
Location: Ferchesar
(52.6477°N, 12.4298°E)
Time: 09:31:41
(UTC+01:00)
Language:

Courier 1B - Orbit

View from above orbital plane
View from above orbital plane
View from above satellite
View from above satellite

Ground track
Ground track

The orbit data is extracted from the following two-line orbital elements,

1 00058U 60013A   22333.85252806  .00000099  00000-0  18372-4 0  9995
2 00058  28.3275 231.9970 0164975 282.3825  75.8301 13.46340923 59367
Epoch (UTC): 29 November 2022 20:27:38
Eccentricity: 0.0164975
inclination: 28.3275°
perigee height: 962 km
apogee height: 1209 km
right ascension of ascending node: 231.9970°
argument of perigee: 282.3825°
revolutions per day: 13.46340923
mean anomaly at epoch: 75.8301°
orbit number at epoch: 5936

The dashed part of the orbit path shows where the satellite is in the earth's shadow,  

DLR